| time (UTC) | temp C | wind direction | speed KPH | gust KPH | rain 1hr cm | rain 24hr cm | rain mn cm | humidity % | barometer mb |
| 20260903161815 | 35 | 360 | 4.8 | 6.4 | 0.00 | 0.00 | 0.00 | 31 | 1019.3 |
| 20260903161328 | 35 | 360 | 4.8 | 6.4 | 0.00 | 0.00 | 0.00 | 31 | 1019.3 |
| 20260903160829 | 36 | 262 | 4.8 | 6.4 | 0.00 | 0.00 | 0.00 | 31 | 1019.4 |
| 20260903160320 | 36 | 257 | 3.2 | 6.4 | 0.00 | 0.00 | 0.00 | 32 | 1019.4 |
| 20260903155819 | 35 | 360 | 4.8 | 6.4 | 0.00 | 0.00 | 0.00 | 32 | 1019.5 |
| 20260903155338 | 35 | 360 | 3.2 | 6.4 | 0.00 | 0.00 | 0.00 | 33 | 1019.6 |
| 20260903154815 | 35 | 360 | 3.2 | 6.4 | 0.00 | 0.00 | 0.00 | 33 | 1019.6 |
| 20260903154326 | 35 | 254 | 1.6 | 9.7 | 0.00 | 0.00 | 0.00 | 33 | 1019.6 |
| 20260903153818 | 35 | 360 | 4.8 | 9.7 | 0.00 | 0.00 | 0.00 | 33 | 1019.7 |
| 20260903153319 | 35 | 266 | 1.6 | 4.8 | 0.00 | 0.00 | 0.00 | 35 | 1019.7 |
| 20260903152833 | 33 | 360 | 1.6 | 6.4 | 0.00 | 0.00 | 0.00 | 36 | 1019.7 |
| 20260903152332 | 33 | 311 | 3.2 | 8.0 | 0.00 | 0.00 | 0.00 | 36 | 1019.8 |
| 20260903151856 | 33 | 360 | 4.8 | 8.0 | 0.00 | 0.00 | 0.00 | 37 | 1019.8 |
| 20260903151330 | 32 | 251 | 6.4 | 8.0 | 0.00 | 0.00 | 0.00 | 38 | 1019.9 |
| 20260903150824 | 32 | 360 | 6.4 | 8.0 | 0.00 | 0.00 | 0.00 | 38 | 1019.8 |
| 20260903150323 | 32 | 256 | 4.8 | 8.0 | 0.00 | 0.00 | 0.00 | 39 | 1019.9 |
| 20260903145833 | 33 | 250 | 6.4 | 8.0 | 0.00 | 0.00 | 0.00 | 36 | 1019.9 |
| 20260903145328 | 33 | 360 | 3.2 | 6.4 | 0.00 | 0.00 | 0.00 | 39 | 1020.0 |
| 20260903144821 | 33 | 237 | 3.2 | 6.4 | 0.00 | 0.00 | 0.00 | 38 | 1020.0 |
| 20260903144315 | 32 | 243 | 3.2 | 4.8 | 0.00 | 0.00 | 0.00 | 40 | 1020.1 |
| 20260903143816 | 32 | 242 | 3.2 | 6.4 | 0.00 | 0.00 | 0.00 | 42 | 1020.2 |
| 20260903143331 | 32 | 256 | 3.2 | 6.4 | 0.00 | 0.00 | 0.00 | 40 | 1020.2 |
| 20260903142835 | 32 | 254 | 3.2 | 4.8 | 0.00 | 0.00 | 0.00 | 46 | 1020.3 |
| 20260903142332 | 32 | 240 | 3.2 | 4.8 | 0.00 | 0.00 | 0.00 | 53 | 1020.4 |
| 20260903141831 | 32 | 249 | 3.2 | 4.8 | 0.00 | 0.00 | 0.00 | 50 | 1020.5 |
| 20260903141353 | 32 | 238 | 3.2 | 4.8 | 0.00 | 0.00 | 0.00 | 48 | 1020.4 |
| 20260903140829 | 32 | 243 | 1.6 | 4.8 | 0.00 | 0.00 | 0.00 | 47 | 1020.6 |
| 20260903140346 | 31 | 243 | 0.0 | 4.8 | 0.00 | 0.00 | 0.00 | 42 | 1020.6 |
| 20260903135822 | 31 | 243 | 3.2 | 4.8 | 0.00 | 0.00 | 0.00 | 45 | 1020.8 |
| 20260903135314 | 31 | 360 | 1.6 | 4.8 | 0.00 | 0.00 | 0.00 | 52 | 1020.7 |
| 20260903134838 | 31 | 242 | 1.6 | 4.8 | 0.00 | 0.00 | 0.00 | 52 | 1020.7 |
| 20260903134341 | 31 | 243 | 1.6 | 3.2 | 0.00 | 0.00 | 0.00 | 47 | 1020.6 |
| 20260903133816 | 31 | 242 | 0.0 | 4.8 | 0.00 | 0.00 | 0.00 | 48 | 1020.8 |
| 20260903133331 | 31 | 245 | 1.6 | 4.8 | 0.00 | 0.00 | 0.00 | 49 | 1020.8 |
| 20260903132832 | 31 | 245 | 3.2 | 4.8 | 0.00 | 0.00 | 0.00 | 45 | 1020.9 |
| 20260903132321 | 31 | 239 | 3.2 | 4.8 | 0.00 | 0.00 | 0.00 | 47 | 1020.9 |
| 20260903131815 | 30 | 239 | 3.2 | 4.8 | 0.00 | 0.00 | 0.00 | 52 | 1021.0 |
| 20260903131327 | 30 | 240 | 3.2 | 6.4 | 0.00 | 0.00 | 0.00 | 50 | 1021.1 |
| 20260903130822 | 30 | 238 | 3.2 | 8.0 | 0.00 | 0.00 | 0.00 | 48 | 1021.1 |
| 20260903130346 | 29 | 240 | 3.2 | 8.0 | 0.00 | 0.00 | 0.00 | 50 | 1021.1 |
| 20260903125817 | 28 | 254 | 4.8 | 6.4 | 0.00 | 0.00 | 0.00 | 52 | 1021.1 |
| 20260903125351 | 28 | 250 | 4.8 | 9.7 | 0.00 | 0.00 | 0.00 | 53 | 1021.1 |
| 20260903124817 | 27 | 360 | 6.4 | 9.7 | 0.00 | 0.00 | 0.00 | 55 | 1021.4 |
| 20260903124341 | 27 | 360 | 4.8 | 11.3 | 0.00 | 0.00 | 0.00 | 57 | 1021.4 |
| 20260903123823 | 27 | 360 | 4.8 | 9.7 | 0.00 | 0.00 | 0.00 | 59 | 1021.4 |
| 20260903123318 | 26 | 360 | 4.8 | 9.7 | 0.00 | 0.00 | 0.00 | 62 | 1021.4 |
| 20260903122820 | 26 | 360 | 3.2 | 8.0 | 0.00 | 0.00 | 0.00 | 61 | 1021.4 |
| 20260903122317 | 26 | 276 | 4.8 | 9.7 | 0.00 | 0.00 | 0.00 | 63 | 1021.4 |
| 20260903121841 | 26 | 285 | 4.8 | 9.7 | 0.00 | 0.00 | 0.00 | 62 | 1021.4 |
| 20260903121315 | 26 | 265 | 6.4 | 8.0 | 0.00 | 0.00 | 0.00 | 62 | 1021.4 |
| 20260903120836 | 26 | 256 | 4.8 | 6.4 | 0.00 | 0.00 | 0.00 | 61 | 1021.4 |
| 20260903120333 | 26 | 252 | 3.2 | 6.4 | 0.00 | 0.00 | 0.00 | 62 | 1021.4 |
| 20260903115833 | 26 | 256 | 4.8 | 6.4 | 0.00 | 0.00 | 0.00 | 63 | 1021.5 |
| 20260903115329 | 26 | 360 | 3.2 | 6.4 | 0.00 | 0.00 | 0.00 | 64 | 1021.5 |
| 20260903114828 | 26 | 254 | 4.8 | 6.4 | 0.00 | 0.00 | 0.00 | 64 | 1021.7 |
| 20260903114325 | 25 | 360 | 4.8 | 9.7 | 0.00 | 0.00 | 0.00 | 66 | 1021.8 |
| 20260903113822 | 25 | 255 | 4.8 | 9.7 | 0.00 | 0.00 | 0.00 | 66 | 1021.9 |
| 20260903113319 | 26 | 264 | 4.8 | 6.4 | 0.00 | 0.00 | 0.00 | 66 | 1022.0 |
| 20260903112816 | 26 | 239 | 3.2 | 4.8 | 0.00 | 0.00 | 0.00 | 64 | 1022.0 |
| 20260903112340 | 25 | 235 | 3.2 | 4.8 | 0.00 | 0.00 | 0.00 | 65 | 1022.0 |
| 20260903111816 | 25 | 226 | 3.2 | 4.8 | 0.00 | 0.00 | 0.00 | 65 | 1022.0 |
| 20260903111330 | 25 | 225 | 1.6 | 4.8 | 0.00 | 0.00 | 0.00 | 66 | 1022.1 |
| 20260903110814 | 25 | 230 | 3.2 | 4.8 | 0.00 | 0.00 | 0.00 | 66 | 1022.0 |
| 20260903110329 | 25 | 238 | 3.2 | 4.8 | 0.00 | 0.00 | 0.00 | 68 | 1022.1 |
| 20260903105828 | 25 | 240 | 0.0 | 3.2 | 0.00 | 0.00 | 0.00 | 69 | 1022.1 |
| 20260903105342 | 24 | 241 | 1.6 | 3.2 | 0.00 | 0.00 | 0.00 | 70 | 1022.2 |
| 20260903104829 | 24 | 242 | 1.6 | 4.8 | 0.00 | 0.00 | 0.00 | 70 | 1022.3 |
| 20260903104328 | 23 | 242 | 1.6 | 4.8 | 0.00 | 0.00 | 0.00 | 71 | 1022.4 |
| 20260903103821 | 23 | 360 | 3.2 | 6.4 | 0.00 | 0.00 | 0.00 | 72 | 1022.3 |
| 20260903103322 | 23 | 261 | 4.8 | 6.4 | 0.00 | 0.00 | 0.00 | 71 | 1022.4 |
| 20260903102818 | 23 | 360 | 3.2 | 6.4 | 0.00 | 0.00 | 0.00 | 71 | 1022.3 |
| 20260903102315 | 23 | 254 | 3.2 | 4.8 | 0.00 | 0.00 | 0.00 | 72 | 1022.3 |
| 20260903101830 | 22 | 254 | 3.2 | 4.8 | 0.00 | 0.00 | 0.00 | 73 | 1022.3 |
| 20260903101344 | 22 | 265 | 3.2 | 4.8 | 0.00 | 0.00 | 0.00 | 73 | 1022.3 |
| 20260903100823 | 22 | 266 | 3.2 | 8.0 | 0.00 | 0.00 | 0.00 | 74 | 1022.2 |
| 20260903100319 | 22 | 360 | 4.8 | 8.0 | 0.00 | 0.00 | 0.00 | 73 | 1022.3 |
| 20260903095821 | 22 | 255 | 4.8 | 6.4 | 0.00 | 0.00 | 0.00 | 73 | 1022.3 |
| 20260903095317 | 22 | 261 | 4.8 | 8.0 | 0.00 | 0.00 | 0.00 | 73 | 1022.2 |
| 20260903094842 | 22 | 360 | 4.8 | 8.0 | 0.00 | 0.00 | 0.00 | 73 | 1022.2 |
| 20260903094344 | 22 | 263 | 4.8 | 4.8 | 0.00 | 0.00 | 0.00 | 73 | 1022.0 |
| 20260903093841 | 22 | 360 | 3.2 | 6.4 | 0.00 | 0.00 | 0.00 | 74 | 1022.1 |
| 20260903093323 | 21 | 360 | 4.8 | 6.4 | 0.00 | 0.00 | 0.00 | 74 | 1022.2 |
| 20260903092815 | 21 | 263 | 3.2 | 8.0 | 0.00 | 0.00 | 0.00 | 74 | 1022.1 |
| 20260903092342 | 21 | 268 | 4.8 | 8.0 | 0.00 | 0.00 | 0.00 | 74 | 1022.0 |
| 20260903091814 | 21 | 360 | 4.8 | 6.4 | 0.00 | 0.00 | 0.00 | 73 | 1022.1 |
| 20260903091334 | 21 | 265 | 3.2 | 6.4 | 0.00 | 0.00 | 0.00 | 74 | 1022.1 |
| 20260903090835 | 21 | 360 | 3.2 | 6.4 | 0.00 | 0.00 | 0.00 | 75 | 1021.9 |
| 20260903090320 | 21 | 360 | 3.2 | 6.4 | 0.00 | 0.00 | 0.00 | 75 | 1021.8 |
| 20260903085851 | 21 | 265 | 4.8 | 6.4 | 0.00 | 0.00 | 0.00 | 74 | 1021.9 |
| 20260903085326 | 21 | 360 | 4.8 | 6.4 | 0.00 | 0.00 | 0.00 | 74 | 1021.7 |
| 20260903084834 | 21 | 262 | 3.2 | 4.8 | 0.00 | 0.00 | 0.00 | 74 | 1021.7 |
| 20260903084335 | 21 | 261 | 0.0 | 3.2 | 0.00 | 0.00 | 0.00 | 75 | 1021.7 |
| 20260903083829 | 21 | 261 | 0.0 | 0.0 | 0.00 | 0.00 | 0.00 | 75 | 1021.6 |
| 20260903083333 | 21 | 261 | 0.0 | 0.0 | 0.00 | 0.00 | 0.00 | 75 | 1021.5 |
| 20260903082850 | 21 | 261 | 0.0 | 1.6 | 0.00 | 0.00 | 0.00 | 76 | 1021.6 |
| 20260903082338 | 21 | 261 | 0.0 | 4.8 | 0.00 | 0.00 | 0.00 | 76 | 1021.7 |
| 20260903081901 | 21 | 261 | 1.6 | 4.8 | 0.00 | 0.00 | 0.00 | 76 | 1021.7 |
| 20260903081318 | 21 | 261 | 0.0 | 4.8 | 0.00 | 0.00 | 0.00 | 76 | 1021.7 |
| 20260903080839 | 21 | 261 | 1.6 | 4.8 | 0.00 | 0.00 | 0.00 | 75 | 1021.8 |
| 20260903080327 | 21 | 290 | 0.0 | 3.2 | 0.00 | 0.00 | 0.00 | 75 | 1021.7 |
| 20260903075842 | 21 | 292 | 1.6 | 4.8 | 0.00 | 0.00 | 0.00 | 74 | 1021.7 |
| 20260903075322 | 21 | 290 | 1.6 | 4.8 | 0.00 | 0.00 | 0.00 | 73 | 1021.7 |
| 20260903074822 | 21 | 286 | 3.2 | 4.8 | 0.00 | 0.00 | 0.00 | 72 | 1021.7 |
| 20260903074334 | 22 | 313 | 1.6 | 3.2 | 0.00 | 0.00 | 0.00 | 72 | 1021.6 |
| 20260903073851 | 22 | 313 | 0.0 | 1.6 | 0.00 | 0.00 | 0.00 | 71 | 1021.7 |
| 20260903073325 | 22 | 314 | 0.0 | 4.8 | 0.00 | 0.00 | 0.00 | 71 | 1021.7 |
| 20260903072830 | 22 | 314 | 0.0 | 4.8 | 0.00 | 0.00 | 0.00 | 70 | 1021.6 |
| 20260903072349 | 22 | 97 | 0.0 | 1.6 | 0.00 | 0.00 | 0.00 | 69 | 1021.6 |
| 20260903071831 | 22 | 97 | 0.0 | 1.6 | 0.00 | 0.00 | 0.00 | 70 | 1021.6 |
| 20260903071323 | 22 | 97 | 0.0 | 1.6 | 0.00 | 0.00 | 0.00 | 70 | 1021.5 |
| 20260903070850 | 22 | 97 | 0.0 | 1.6 | 0.00 | 0.00 | 0.00 | 70 | 1021.4 |
| 20260903070326 | 21 | 97 | 0.0 | 1.6 | 0.00 | 0.00 | 0.00 | 70 | 1021.3 |
| 20260903065835 | 21 | 97 | 0.0 | 1.6 | 0.00 | 0.00 | 0.00 | 71 | 1021.4 |
| 20260903065316 | 21 | 97 | 0.0 | 4.8 | 0.00 | 0.00 | 0.00 | 72 | 1021.4 |
| 20260903064815 | 21 | 97 | 1.6 | 4.8 | 0.00 | 0.00 | 0.00 | 72 | 1021.4 |
| 20260903064329 | 21 | 94 | 1.6 | 4.8 | 0.00 | 0.00 | 0.00 | 72 | 1021.4 |
| 20260903063832 | 21 | 91 | 0.0 | 1.6 | 0.00 | 0.00 | 0.00 | 72 | 1021.4 |
| 20260903063315 | 20 | 91 | 0.0 | 4.8 | 0.00 | 0.00 | 0.00 | 73 | 1021.2 |
| 20260903062839 | 20 | 91 | 1.6 | 4.8 | 0.00 | 0.00 | 0.00 | 74 | 1021.2 |
| 20260903062332 | 20 | 89 | 0.0 | 0.0 | 0.00 | 0.00 | 0.00 | 74 | 1021.1 |
| 20260903061835 | 20 | 89 | 0.0 | 0.0 | 0.00 | 0.00 | 0.00 | 74 | 1021.2 |
| 20260903061329 | 20 | 89 | 0.0 | 0.0 | 0.00 | 0.00 | 0.00 | 74 | 1021.1 |
| 20260903060826 | 20 | 89 | 0.0 | 3.2 | 0.00 | 0.00 | 0.00 | 74 | 1021.2 |
| 20260903060350 | 20 | 89 | 0.0 | 3.2 | 0.00 | 0.00 | 0.00 | 74 | 1021.1 |
| 20260903055829 | 20 | 88 | 0.0 | 3.2 | 0.00 | 0.00 | 0.00 | 74 | 1021.1 |
| 20260903055329 | 20 | 87 | 0.0 | 4.8 | 0.00 | 0.00 | 0.00 | 74 | 1021.1 |
| 20260903054832 | 20 | 89 | 1.6 | 4.8 | 0.00 | 0.00 | 0.00 | 74 | 1021.1 |
| 20260903054317 | 20 | 88 | 1.6 | 4.8 | 0.00 | 0.00 | 0.00 | 74 | 1021.1 |
| 20260903053837 | 20 | 75 | 1.6 | 4.8 | 0.00 | 0.00 | 0.00 | 75 | 1021.0 |
| 20260903053318 | 20 | 123 | 1.6 | 3.2 | 0.00 | 0.00 | 0.00 | 75 | 1021.0 |
| 20260903052833 | 20 | 123 | 1.6 | 3.2 | 0.00 | 0.00 | 0.00 | 75 | 1021.0 |
| 20260903052342 | 20 | 123 | 0.0 | 0.0 | 0.00 | 0.00 | 0.00 | 74 | 1021.1 |
| 20260903051840 | 20 | 123 | 0.0 | 1.6 | 0.00 | 0.00 | 0.00 | 74 | 1021.1 |
| 20260903051326 | 20 | 123 | 0.0 | 4.8 | 0.00 | 0.00 | 0.00 | 74 | 1021.0 |
| 20260903050817 | 20 | 123 | 1.6 | 4.8 | 0.00 | 0.00 | 0.00 | 74 | 1021.0 |
| 20260903050348 | 20 | 130 | 1.6 | 3.2 | 0.00 | 0.00 | 0.00 | 75 | 1021.0 |
| 20260903045845 | 20 | 132 | 1.6 | 3.2 | 0.00 | 0.00 | 0.00 | 75 | 1021.0 |
| 20260903045319 | 20 | 132 | 0.0 | 4.8 | 0.00 | 0.00 | 0.00 | 75 | 1021.0 |
| 20260903044854 | 20 | 132 | 0.0 | 4.8 | 0.00 | 0.00 | 0.00 | 75 | 1021.0 |
| 20260903044338 | 20 | 128 | 3.2 | 4.8 | 0.00 | 0.00 | 0.00 | 75 | 1020.9 |
| 20260903043830 | 20 | 96 | 0.0 | 0.0 | 0.00 | 0.00 | 0.00 | 75 | 1020.9 |
| 20260903043322 | 20 | 96 | 0.0 | 0.0 | 0.00 | 0.00 | 0.00 | 74 | 1020.7 |
| 20260903042852 | 20 | 96 | 0.0 | 0.0 | 0.00 | 0.00 | 0.00 | 74 | 1020.6 |
| 20260903042331 | 20 | 96 | 0.0 | 0.0 | 0.00 | 0.00 | 0.00 | 74 | 1020.7 |
| 20260903041836 | 20 | 96 | 0.0 | 0.0 | 0.00 | 0.00 | 0.00 | 74 | 1020.7 |
| 20260903041326 | 20 | 96 | 0.0 | 0.0 | 0.00 | 0.00 | 0.00 | 74 | 1020.7 |
| 20260903040824 | 21 | 96 | 0.0 | 0.0 | 0.00 | 0.00 | 0.00 | 73 | 1020.7 |
| 20260903040329 | 21 | 96 | 0.0 | 0.0 | 0.00 | 0.00 | 0.00 | 73 | 1020.8 |
| 20260903035827 | 20 | 96 | 0.0 | 0.0 | 0.00 | 0.00 | 0.00 | 72 | 1020.8 |
| 20260903035334 | 20 | 96 | 0.0 | 0.0 | 0.00 | 0.00 | 0.00 | 73 | 1020.8 |
| 20260903034823 | 20 | 96 | 0.0 | 1.6 | 0.00 | 0.00 | 0.00 | 74 | 1020.8 |
| 20260903034333 | 20 | 96 | 0.0 | 1.6 | 0.00 | 0.00 | 0.00 | 74 | 1020.8 |
| 20260903033835 | 21 | 96 | 0.0 | 0.0 | 0.00 | 0.00 | 0.00 | 74 | 1020.9 |
| 20260903033331 | 21 | 96 | 0.0 | 0.0 | 0.00 | 0.00 | 0.00 | 74 | 1020.9 |
| 20260903032822 | 21 | 96 | 0.0 | 1.6 | 0.00 | 0.00 | 0.00 | 73 | 1021.0 |
| 20260903032334 | 21 | 96 | 0.0 | 0.0 | 0.00 | 0.00 | 0.00 | 73 | 1020.9 |
| 20260903031834 | 21 | 96 | 0.0 | 1.6 | 0.00 | 0.00 | 0.00 | 72 | 1020.9 |
| 20260903031331 | 21 | 96 | 0.0 | 1.6 | 0.00 | 0.00 | 0.00 | 71 | 1020.9 |
| 20260903030830 | 21 | 96 | 0.0 | 0.0 | 0.00 | 0.00 | 0.00 | 70 | 1020.9 |
| 20260903030317 | 21 | 96 | 0.0 | 0.0 | 0.00 | 0.00 | 0.00 | 69 | 1020.9 |
| 20260903025821 | 22 | 96 | 0.0 | 1.6 | 0.00 | 0.00 | 0.00 | 69 | 1021.0 |
| 20260903025341 | 22 | 96 | 0.0 | 4.8 | 0.00 | 0.00 | 0.00 | 67 | 1021.0 |
| 20260903024815 | 22 | 96 | 0.0 | 4.8 | 0.00 | 0.00 | 0.00 | 66 | 1021.1 |
| 20260903024318 | 22 | 100 | 1.6 | 4.8 | 0.00 | 0.00 | 0.00 | 65 | 1021.0 |
| 20260903023820 | 22 | 101 | 1.6 | 4.8 | 0.00 | 0.00 | 0.00 | 65 | 1021.1 |
| 20260903023320 | 22 | 92 | 0.0 | 4.8 | 0.00 | 0.00 | 0.00 | 65 | 1021.0 |
| 20260903022828 | 22 | 92 | 0.0 | 4.8 | 0.00 | 0.00 | 0.00 | 65 | 1021.0 |
| 20260903022329 | 22 | 92 | 1.6 | 4.8 | 0.00 | 0.00 | 0.00 | 65 | 1020.9 |
| 20260903021824 | 22 | 94 | 1.6 | 4.8 | 0.00 | 0.00 | 0.00 | 64 | 1021.0 |
| 20260903021333 | 22 | 142 | 1.6 | 3.2 | 0.00 | 0.00 | 0.00 | 64 | 1021.0 |
| 20260903020825 | 22 | 231 | 0.0 | 0.0 | 0.00 | 0.00 | 0.00 | 65 | 1021.0 |
| 20260903020346 | 22 | 232 | 0.0 | 0.0 | 0.00 | 0.00 | 0.00 | 65 | 1020.9 |
| 20260903015829 | 22 | 232 | 0.0 | 4.8 | 0.00 | 0.00 | 0.00 | 64 | 1021.0 |
| 20260903015333 | 22 | 245 | 0.0 | 4.8 | 0.00 | 0.00 | 0.00 | 66 | 1020.8 |
| 20260903014847 | 22 | 248 | 0.0 | 4.8 | 0.00 | 0.00 | 0.00 | 67 | 1020.8 |
| 20260903014320 | 22 | 248 | 0.0 | 4.8 | 0.00 | 0.00 | 0.00 | 68 | 1020.9 |
| 20260903013820 | 22 | 284 | 0.0 | 4.8 | 0.00 | 0.00 | 0.00 | 66 | 1020.8 |
| 20260903013314 | 22 | 342 | 0.0 | 4.8 | 0.00 | 0.00 | 0.00 | 66 | 1020.8 |
| 20260903012827 | 22 | 102 | 0.0 | 4.8 | 0.00 | 0.00 | 0.00 | 67 | 1020.8 |
| 20260903012325 | 22 | 161 | 0.0 | 0.0 | 0.00 | 0.00 | 0.00 | 68 | 1020.9 |
| 20260903011822 | 22 | 161 | 0.0 | 0.0 | 0.00 | 0.00 | 0.00 | 68 | 1020.9 |
| 20260903011320 | 22 | 161 | 0.0 | 0.0 | 0.00 | 0.00 | 0.00 | 68 | 1021.0 |
| 20260903010816 | 22 | 161 | 0.0 | 0.0 | 0.00 | 0.00 | 0.00 | 68 | 1021.0 |
| 20260903010340 | 22 | 161 | 0.0 | 0.0 | 0.00 | 0.00 | 0.00 | 68 | 1021.1 |
| 20260903005816 | 22 | 161 | 0.0 | 0.0 | 0.00 | 0.00 | 0.00 | 69 | 1021.2 |
| 20260903005326 | 22 | 161 | 0.0 | 0.0 | 0.00 | 0.00 | 0.00 | 68 | 1021.2 |
| 20260903004831 | 22 | 161 | 0.0 | 0.0 | 0.00 | 0.00 | 0.00 | 68 | 1021.3 |
| 20260903004343 | 22 | 161 | 0.0 | 0.0 | 0.00 | 0.00 | 0.00 | 68 | 1021.3 |
| 20260903003827 | 22 | 161 | 0.0 | 0.0 | 0.00 | 0.00 | 0.00 | 68 | 1021.4 |
| 20260903003322 | 22 | 161 | 0.0 | 0.0 | 0.00 | 0.00 | 0.00 | 67 | 1021.4 |
| 20260903002833 | 22 | 161 | 0.0 | 0.0 | 0.00 | 0.00 | 0.00 | 68 | 1021.5 |
| 20260903002355 | 22 | 161 | 0.0 | 3.2 | 0.00 | 0.00 | 0.00 | 66 | 1021.5 |
| 20260903001831 | 22 | 161 | 0.0 | 3.2 | 0.00 | 0.00 | 0.00 | 66 | 1021.4 |
| 20260903001325 | 22 | 165 | 0.0 | 8.0 | 0.00 | 0.00 | 0.00 | 66 | 1021.4 |
| 20260903000818 | 23 | 165 | 4.8 | 8.0 | 0.00 | 0.00 | 0.00 | 65 | 1021.4 |
| 20260903000322 | 23 | 157 | 1.6 | 3.2 | 0.00 | 0.00 | 0.00 | 64 | 1021.5 |
| 20260902235814 | 23 | 185 | 0.0 | 0.0 | 0.00 | 0.00 | 0.00 | 64 | 1021.4 |
| 20260902235315 | 23 | 185 | 0.0 | 0.0 | 0.00 | 0.00 | 0.00 | 63 | 1021.4 |
| 20260902234824 | 23 | 185 | 0.0 | 1.6 | 0.00 | 0.00 | 0.00 | 63 | 1021.5 |
| 20260902234315 | 23 | 185 | 0.0 | 4.8 | 0.00 | 0.00 | 0.00 | 62 | 1021.4 |
| 20260902233816 | 23 | 185 | 1.6 | 8.0 | 0.00 | 0.00 | 0.00 | 62 | 1021.4 |
| 20260902233326 | 24 | 183 | 4.8 | 14.5 | 0.00 | 0.00 | 0.00 | 61 | 1021.4 |
| 20260902232830 | 24 | 360 | 6.4 | 17.7 | 0.00 | 0.00 | 0.00 | 60 | 1021.2 |
| 20260902232323 | 24 | 98 | 8.0 | 19.3 | 0.00 | 0.00 | 0.00 | 60 | 1021.2 |
| 20260902231818 | 24 | 360 | 8.0 | 19.3 | 0.00 | 0.00 | 0.00 | 60 | 1021.2 |
| 20260902231321 | 24 | 80 | 11.3 | 19.3 | 0.00 | 0.00 | 0.00 | 60 | 1021.2 |
| 20260902230814 | 24 | 64 | 11.3 | 22.5 | 0.00 | 0.00 | 0.00 | 59 | 1021.1 |
| 20260902230338 | 24 | 346 | 9.7 | 20.9 | 0.00 | 0.00 | 0.00 | 59 | 1021.1 |
| 20260902225840 | 24 | 49 | 12.9 | 20.9 | 0.00 | 0.00 | 0.00 | 60 | 1021.1 |
| 20260902225316 | 24 | 341 | 9.7 | 24.1 | 0.00 | 0.00 | 0.00 | 60 | 1021.2 |
| 20260902224818 | 24 | 67 | 11.3 | 24.1 | 0.00 | 0.00 | 0.00 | 60 | 1021.2 |
| 20260902224318 | 24 | 50 | 11.3 | 22.5 | 0.00 | 0.00 | 0.00 | 60 | 1021.1 |
| 20260902223832 | 24 | 39 | 11.3 | 20.9 | 0.00 | 0.00 | 0.00 | 60 | 1021.1 |
| 20260902223330 | 24 | 96 | 12.9 | 25.7 | 0.00 | 0.00 | 0.00 | 60 | 1021.1 |
| 20260902222823 | 24 | 344 | 11.3 | 25.7 | 0.00 | 0.00 | 0.00 | 60 | 1021.2 |
| 20260902222318 | 24 | 360 | 11.3 | 27.4 | 0.00 | 0.00 | 0.00 | 61 | 1021.1 |
| 20260902221831 | 24 | 42 | 11.3 | 27.4 | 0.00 | 0.00 | 0.00 | 61 | 1021.1 |
| 20260902221350 | 24 | 360 | 12.9 | 20.9 | 0.00 | 0.00 | 0.00 | 61 | 1021.3 |
| 20260902220820 | 24 | 71 | 11.3 | 24.1 | 0.00 | 0.00 | 0.00 | 61 | 1021.2 |
| 20260902220317 | 24 | 82 | 9.7 | 25.7 | 0.00 | 0.00 | 0.00 | 61 | 1021.2 |
| 20260902215832 | 24 | 53 | 12.9 | 25.7 | 0.00 | 0.00 | 0.00 | 61 | 1021.1 |
| 20260902215353 | 24 | 360 | 11.3 | 29.0 | 0.00 | 0.00 | 0.00 | 62 | 1021.2 |
| 20260902214822 | 24 | 55 | 12.9 | 25.7 | 0.00 | 0.00 | 0.00 | 62 | 1021.1 |
| 20260902214314 | 24 | 32 | 11.3 | 24.1 | 0.00 | 0.00 | 0.00 | 62 | 1021.3 |
| 20260902213836 | 24 | 57 | 12.9 | 24.1 | 0.00 | 0.00 | 0.00 | 62 | 1021.2 |
| 20260902213350 | 23 | 346 | 11.3 | 27.4 | 0.00 | 0.00 | 0.00 | 63 | 1021.2 |
| 20260902212903 | 23 | 40 | 11.3 | 27.4 | 0.00 | 0.00 | 0.00 | 63 | 1021.1 |
| 20260902212327 | 23 | 42 | 11.3 | 25.7 | 0.00 | 0.00 | 0.00 | 64 | 1021.2 |
| 20260902211857 | 23 | 63 | 11.3 | 24.1 | 0.00 | 0.00 | 0.00 | 64 | 1021.2 |
| 20260902211325 | 23 | 37 | 9.7 | 27.4 | 0.00 | 0.00 | 0.00 | 65 | 1021.2 |
| 20260902210829 | 23 | 50 | 9.7 | 27.4 | 0.00 | 0.00 | 0.00 | 65 | 1021.3 |
| 20260902210332 | 23 | 33 | 9.7 | 25.7 | 0.00 | 0.00 | 0.00 | 65 | 1021.2 |
| 20260902205817 | 23 | 92 | 11.3 | 25.7 | 0.00 | 0.00 | 0.00 | 65 | 1021.3 |
| 20260902205325 | 23 | 325 | 11.3 | 25.7 | 0.00 | 0.00 | 0.00 | 65 | 1021.1 |
| 20260902204821 | 23 | 355 | 11.3 | 27.4 | 0.00 | 0.00 | 0.00 | 66 | 1021.2 |
| 20260902204318 | 23 | 55 | 12.9 | 27.4 | 0.00 | 0.00 | 0.00 | 65 | 1021.2 |
| 20260902203836 | 24 | 360 | 11.3 | 25.7 | 0.00 | 0.00 | 0.00 | 65 | 1021.1 |
| 20260902203329 | 24 | 52 | 12.9 | 27.4 | 0.00 | 0.00 | 0.00 | 65 | 1021.0 |
| 20260902202826 | 24 | 39 | 12.9 | 30.6 | 0.00 | 0.00 | 0.00 | 65 | 1021.0 |
| 20260902202328 | 24 | 44 | 14.5 | 30.6 | 0.00 | 0.00 | 0.00 | 65 | 1021.0 |
| 20260902201827 | 24 | 360 | 12.9 | 27.4 | 0.00 | 0.00 | 0.00 | 66 | 1021.0 |
| 20260902201322 | 24 | 46 | 17.7 | 27.4 | 0.00 | 0.00 | 0.00 | 67 | 1020.9 |
| 20260902200847 | 24 | 355 | 12.9 | 24.1 | 0.00 | 0.00 | 0.00 | 67 | 1020.7 |
| 20260902200338 | 24 | 79 | 11.3 | 22.5 | 0.00 | 0.00 | 0.00 | 68 | 1020.7 |
| 20260902195817 | 24 | 298 | 11.3 | 27.4 | 0.00 | 0.00 | 0.00 | 68 | 1020.6 |
| 20260902195340 | 24 | 348 | 12.9 | 27.4 | 0.00 | 0.00 | 0.00 | 69 | 1020.7 |
| 20260902194832 | 24 | 63 | 16.1 | 25.7 | 0.00 | 0.00 | 0.00 | 69 | 1020.7 |
| 20260902194335 | 25 | 344 | 12.9 | 24.1 | 0.00 | 0.00 | 0.00 | 70 | 1020.6 |
| 20260902193831 | 25 | 38 | 9.7 | 24.1 | 0.00 | 0.00 | 0.00 | 70 | 1020.5 |
| 20260902193351 | 25 | 57 | 12.9 | 24.1 | 0.00 | 0.00 | 0.00 | 71 | 1020.5 |
| 20260902192817 | 25 | 98 | 12.9 | 24.1 | 0.00 | 0.00 | 0.00 | 71 | 1020.4 |
| 20260902192320 | 25 | 355 | 11.3 | 25.7 | 0.00 | 0.00 | 0.00 | 70 | 1020.4 |
| 20260902191859 | 25 | 51 | 12.9 | 27.4 | 0.00 | 0.00 | 0.00 | 70 | 1020.3 |
| 20260902191325 | 25 | 360 | 14.5 | 24.1 | 0.00 | 0.00 | 0.00 | 69 | 1020.5 |
| 20260902190846 | 25 | 355 | 9.7 | 24.1 | 0.00 | 0.00 | 0.00 | 68 | 1020.5 |
| 20260902190321 | 26 | 75 | 11.3 | 24.1 | 0.00 | 0.00 | 0.00 | 67 | 1020.5 |
| 20260902185821 | 26 | 360 | 8.0 | 19.3 | 0.00 | 0.00 | 0.00 | 66 | 1020.5 |
| 20260902185320 | 26 | 42 | 6.4 | 17.7 | 0.00 | 0.00 | 0.00 | 65 | 1020.5 |
| 20260902184831 | 26 | 329 | 6.4 | 20.9 | 0.00 | 0.00 | 0.00 | 65 | 1020.6 |
| 20260902184334 | 26 | 57 | 12.9 | 20.9 | 0.00 | 0.00 | 0.00 | 63 | 1020.5 |
| 20260902183827 | 27 | 42 | 9.7 | 20.9 | 0.00 | 0.00 | 0.00 | 62 | 1020.6 |
| 20260902183321 | 27 | 55 | 9.7 | 17.7 | 0.00 | 0.00 | 0.00 | 61 | 1020.8 |
| 20260902182825 | 27 | 42 | 6.4 | 17.7 | 0.00 | 0.00 | 0.00 | 61 | 1020.7 |
| 20260902182322 | 27 | 76 | 8.0 | 24.1 | 0.00 | 0.00 | 0.00 | 61 | 1020.8 |
| 20260902181819 | 27 | 360 | 11.3 | 24.1 | 0.00 | 0.00 | 0.00 | 60 | 1020.7 |
| 20260902181322 | 27 | 31 | 11.3 | 20.9 | 0.00 | 0.00 | 0.00 | 61 | 1020.7 |
| 20260902180817 | 27 | 335 | 11.3 | 22.5 | 0.00 | 0.00 | 0.00 | 61 | 1020.7 |
| 20260902180313 | 27 | 52 | 9.7 | 24.1 | 0.00 | 0.00 | 0.00 | 61 | 1020.8 |
| 20260902175837 | 27 | 40 | 11.3 | 22.5 | 0.00 | 0.00 | 0.00 | 61 | 1020.7 |
| 20260902175331 | 28 | 44 | 11.3 | 19.3 | 0.00 | 0.00 | 0.00 | 60 | 1020.7 |
| 20260902174831 | 28 | 35 | 6.4 | 17.7 | 0.00 | 0.00 | 0.00 | 61 | 1020.7 |
| 20260902174327 | 28 | 40 | 8.0 | 19.3 | 0.00 | 0.00 | 0.00 | 61 | 1020.8 |
| 20260902173829 | 28 | 48 | 8.0 | 20.9 | 0.00 | 0.00 | 0.00 | 61 | 1020.7 |
| 20260902173321 | 28 | 50 | 9.7 | 19.3 | 0.00 | 0.00 | 0.00 | 61 | 1020.8 |
| 20260902172823 | 28 | 47 | 8.0 | 19.3 | 0.00 | 0.00 | 0.00 | 61 | 1020.8 |
| 20260902172338 | 28 | 360 | 8.0 | 16.1 | 0.00 | 0.00 | 0.00 | 61 | 1020.8 |
| 20260902171818 | 28 | 314 | 8.0 | 16.1 | 0.00 | 0.00 | 0.00 | 60 | 1020.9 |
| 20260902171340 | 28 | 73 | 4.8 | 16.1 | 0.00 | 0.00 | 0.00 | 61 | 1020.8 |
| 20260902170815 | 28 | 36 | 4.8 | 17.7 | 0.00 | 0.00 | 0.00 | 60 | 1020.9 |
| 20260902170332 | 28 | 66 | 6.4 | 19.3 | 0.00 | 0.00 | 0.00 | 60 | 1020.9 |
| 20260902165830 | 28 | 360 | 6.4 | 19.3 | 0.00 | 0.00 | 0.00 | 61 | 1020.8 |
| 20260902165326 | 28 | 48 | 6.4 | 14.5 | 0.00 | 0.00 | 0.00 | 61 | 1020.9 |
| 20260902164826 | 28 | 355 | 3.2 | 19.3 | 0.00 | 0.00 | 0.00 | 62 | 1021.0 |
| 20260902164334 | 27 | 72 | 11.3 | 19.3 | 0.00 | 0.00 | 0.00 | 62 | 1020.8 |
| 20260902163821 | 27 | 246 | 1.6 | 6.4 | 0.00 | 0.00 | 0.00 | 64 | 1020.9 |
| 20260902163316 | 27 | 360 | 3.2 | 4.8 | 0.00 | 0.00 | 0.00 | 64 | 1021.1 |
| 20260902162836 | 27 | 234 | 0.0 | 9.7 | 0.00 | 0.00 | 0.00 | 65 | 1021.1 |
| 20260902162314 | 27 | 234 | 3.2 | 9.7 | 0.00 | 0.00 | 0.00 | 64 | 1021.1 |